User: anonymous
Location: Unspecified
(0.0000°N, 0.0000°E)
Time: 04:29:45
(UTC+00:00)
Language:

N. Korean satellite - Orbit

View from above orbital plane
View from above orbital plane
View from above satellite
View from above satellite

Ground track
Ground track

The orbit data is extracted from the following two-line orbital elements,

1 39026U 12072A   14213.44100504  .00004233  00000-0  22553-3 0  1131
2 39026 097.3247 251.4026 0050523 271.0090 088.5354 15.14623816 90221
Epoch (UTC): 01 August 2014 10:35:02
Eccentricity: 0.0050523
inclination: 97.3247°
perigee height: 487 km
apogee height: 557 km
right ascension of ascending node: 251.4026°
argument of perigee: 271.0090°
revolutions per day: 15.14623816
mean anomaly at epoch: 88.5354°
orbit number at epoch: 9022

The dashed part of the orbit path shows where the satellite is in the earth's shadow,  

DLR